When you browse on this site, cookies collect data to enhance your experience and personalize the content and advertising you see.
Visit our Privacy Policy to learn more. By continuing to use the site, you agree to this use of cookies and data.
  • In Austria
  • List of Countries
  • For 7 days
  • Water Temperature
  • Satellite Maps
  • Weather Map
  • News
  • Weather Widgets
  • user-avatar
    Login

    Hourly Weather San Luis

    Today, 16 January, Wednesday

    Time Temperature Precipitation Wind Pressure Humidity
    00:00 +22°C° 0 mm 3 mps 696 mmHg 35%
    01:00 +22°C° 0 mm 3 mps 696 mmHg 35%
    02:00 +22°C° 0 mm 4 mps 695 mmHg 38%
    03:00 +22°C° 0 mm 4 mps 695 mmHg 38%
    04:00 +22°C° 0 mm 5 mps 695 mmHg 37%
    05:00 +22°C° 0 mm 5 mps 695 mmHg 36%
    06:00 +25°C° 0 mm 5 mps 696 mmHg 34%
    07:00 +27°C° 0 mm 5 mps 696 mmHg 32%
    08:00 +30°C° 0 mm 5 mps 696 mmHg 32%
    09:00 +32°C° 0 mm 4 mps 696 mmHg 28%
    10:00 +34°C° 0 mm 3 mps 696 mmHg 23%
    11:00 +34°C° 0 mm 1 mps 696 mmHg 18%
    12:00 +35°C° 0 mm 1 mps 696 mmHg 17%
    13:00 +36°C° 0 mm 1 mps 696 mmHg 16%
    14:00 +37°C° 0 mm 1 mps 695 mmHg 14%
    15:00 +38°C° 0 mm 2 mps 695 mmHg 14%
    16:00 +38°C° 0 mm 2 mps 695 mmHg 14%
    17:00 +38°C° 0 mm 3 mps 695 mmHg 14%
    18:00 +36°C° 0 mm 4 mps 695 mmHg 19%
    19:00 +34°C° 0 mm 6 mps 695 mmHg 23%
    20:00 +31°C° 0 mm 8 mps 695 mmHg 28%
    21:00 +28°C° 0.5 mm 9 mps 697 mmHg 34%
    22:00 +26°C° 0.5 mm 11 mps 698 mmHg 40%
    23:00 +22°C° 0.5 mm 12 mps 699 mmHg 46%

    Tomorrow, 17 January, Thursday

    Time Temperature Precipitation Wind Pressure Humidity
    00:00 +22°C° 0.3 mm 11 mps 700 mmHg 49%
    01:00 +21°C° 0.3 mm 9 mps 700 mmHg 51%
    02:00 +20°C° 0.3 mm 8 mps 701 mmHg 54%
    03:00 +18°C° 0.2 mm 8 mps 701 mmHg 59%
    04:00 +18°C° 0.2 mm 9 mps 702 mmHg 65%
    05:00 +17°C° 0.2 mm 9 mps 702 mmHg 71%
    06:00 +16°C° 0.4 mm 10 mps 702 mmHg 74%
    07:00 +14°C° 0.4 mm 10 mps 703 mmHg 78%
    08:00 +13°C° 0.4 mm 11 mps 703 mmHg 81%
    09:00 +13°C° 0.3 mm 11 mps 704 mmHg 80%
    10:00 +13°C° 0.3 mm 11 mps 705 mmHg 79%
    11:00 +13°C° 0.3 mm 11 mps 705 mmHg 77%
    12:00 +13°C° 0.1 mm 10 mps 705 mmHg 74%
    13:00 +14°C° 0.1 mm 10 mps 705 mmHg 70%
    14:00 +16°C° 0.1 mm 9 mps 705 mmHg 67%
    15:00 +16°C° 0 mm 9 mps 705 mmHg 64%
    16:00 +17°C° 0 mm 9 mps 704 mmHg 62%
    17:00 +17°C° 0 mm 9 mps 704 mmHg 59%
    18:00 +16°C° 0 mm 8 mps 704 mmHg 64%
    19:00 +15°C° 0 mm 8 mps 704 mmHg 69%
    20:00 +13°C° 0 mm 8 mps 704 mmHg 73%
    21:00 +12°C° 0 mm 7 mps 704 mmHg 74%
    22:00 +13°C° 0 mm 6 mps 704 mmHg 74%
    23:00 +13°C° 0 mm 5 mps 704 mmHg 75%

    Day after tomorrow, 18 January, Friday

    Time Temperature Precipitation Wind Pressure Humidity
    00:00 +12°C° 0 mm 5 mps 704 mmHg 74%
    01:00 +12°C° 0 mm 4 mps 704 mmHg 73%
    02:00 +12°C° 0 mm 4 mps 703 mmHg 71%
    03:00 +12°C° 0 mm 4 mps 703 mmHg 73%
    04:00 +12°C° 0 mm 3 mps 703 mmHg 74%
    05:00 +12°C° 0 mm 3 mps 703 mmHg 76%
    06:00 +14°C° 0 mm 3 mps 703 mmHg 69%
    07:00 +17°C° 0 mm 3 mps 704 mmHg 63%
    08:00 +19°C° 0 mm 3 mps 704 mmHg 56%
    09:00 +21°C° 0 mm 3 mps 704 mmHg 51%
    10:00 +23°C° 0 mm 2 mps 705 mmHg 46%
    11:00 +25°C° 0 mm 2 mps 705 mmHg 41%
    12:00 +26°C° 0 mm 2 mps 704 mmHg 39%
    13:00 +28°C° 0 mm 2 mps 703 mmHg 36%
    14:00 +29°C° 0 mm 2 mps 703 mmHg 34%
    15:00 +29°C° 0 mm 2 mps 702 mmHg 33%
    16:00 +29°C° 0 mm 2 mps 701 mmHg 33%
    17:00 +30°C° 0 mm 3 mps 701 mmHg 32%
    18:00 +27°C° 0 mm 3 mps 701 mmHg 39%
    19:00 +25°C° 0 mm 4 mps 700 mmHg 47%
    20:00 +22°C° 0 mm 5 mps 700 mmHg 54%
    21:00 +22°C° 0 mm 5 mps 700 mmHg 54%
    22:00 +21°C° 0 mm 4 mps 701 mmHg 55%
    23:00 +20°C° 0 mm 4 mps 701 mmHg 55%

    19 January, Saturday

    Time Temperature Precipitation Wind Pressure Humidity
    00:00 +20°C° 0 mm 5 mps 701 mmHg 60%
    01:00 +20°C° 0 mm 6 mps 700 mmHg 65%
    02:00 +20°C° 0 mm 6 mps 700 mmHg 71%
    03:00 +19°C° 0 mm 6 mps 700 mmHg 72%
    04:00 +19°C° 0 mm 6 mps 700 mmHg 73%
    05:00 +19°C° 0 mm 6 mps 700 mmHg 74%
    06:00 +21°C° 0 mm 7 mps 700 mmHg 67%
    07:00 +22°C° 0 mm 7 mps 701 mmHg 60%
    08:00 +24°C° 0 mm 7 mps 701 mmHg 52%
    09:00 +27°C° 0 mm 7 mps 701 mmHg 47%
    10:00 +28°C° 0 mm 6 mps 701 mmHg 42%
    11:00 +30°C° 0 mm 6 mps 701 mmHg 36%
    12:00 +32°C° 0 mm 5 mps 701 mmHg 34%
    13:00 +33°C° 0 mm 5 mps 700 mmHg 32%
    14:00 +33°C° 0 mm 5 mps 699 mmHg 29%
    15:00 +34°C° 0 mm 4 mps 699 mmHg 29%
    16:00 +34°C° 0 mm 4 mps 698 mmHg 28%
    17:00 +34°C° 0 mm 3 mps 698 mmHg 28%
    18:00 +31°C° 0 mm 3 mps 698 mmHg 33%
    19:00 +29°C° 0 mm 3 mps 698 mmHg 38%
    20:00 +26°C° 0 mm 3 mps 697 mmHg 44%
    21:00 +26°C° 0 mm 4 mps 698 mmHg 46%
    22:00 +25°C° 0 mm 4 mps 698 mmHg 49%
    23:00 +25°C° 0 mm 5 mps 699 mmHg 51%

    20 January, Sunday

    Time Temperature Precipitation Wind Pressure Humidity
    00:00 +23°C° 0 mm 6 mps 698 mmHg 54%
    01:00 +23°C° 0 mm 8 mps 698 mmHg 56%
    02:00 +23°C° 0 mm 9 mps 698 mmHg 59%
    03:00 +22°C° 0 mm 9 mps 698 mmHg 60%
    04:00 +22°C° 0 mm 9 mps 697 mmHg 62%
    05:00 +21°C° 0 mm 9 mps 697 mmHg 63%
    06:00 +23°C° 0 mm 8 mps 698 mmHg 58%
    07:00 +24°C° 0 mm 8 mps 698 mmHg 53%
    08:00 +27°C° 0 mm 8 mps 699 mmHg 48%
    09:00 +29°C° 0 mm 7 mps 699 mmHg 42%
    10:00 +32°C° 0 mm 7 mps 699 mmHg 36%
    11:00 +34°C° 0 mm 6 mps 698 mmHg 30%
    12:00 +35°C° 0 mm 6 mps 698 mmHg 28%
    13:00 +35°C° 0 mm 5 mps 697 mmHg 25%
    14:00 +36°C° 0 mm 5 mps 697 mmHg 23%
    15:00 +36°C° 0 mm 5 mps 696 mmHg 22%
    16:00 +37°C° 0 mm 5 mps 695 mmHg 22%
    17:00 +37°C° 0 mm 4 mps 694 mmHg 21%
    18:00 +34°C° 0 mm 4 mps 694 mmHg 27%
    19:00 +32°C° 0 mm 4 mps 694 mmHg 33%
    20:00 +29°C° 0 mm 4 mps 694 mmHg 38%
    21:00 +28°C° 0 mm 5 mps 694 mmHg 43%
    22:00 +27°C° 0 mm 6 mps 694 mmHg 48%
    23:00 +27°C° 0 mm 7 mps 694 mmHg 53%

    21 January, Monday

    Time Temperature Precipitation Wind Pressure Humidity
    00:00 +26°C° 0 mm 8 mps 694 mmHg 56%
    01:00 +26°C° 0 mm 9 mps 694 mmHg 59%
    02:00 +24°C° 0 mm 9 mps 694 mmHg 62%
    03:00 +24°C° 0 mm 8 mps 694 mmHg 62%
    04:00 +23°C° 0 mm 7 mps 694 mmHg 62%
    05:00 +23°C° 0 mm 6 mps 694 mmHg 62%
    06:00 +25°C° 0 mm 5 mps 695 mmHg 57%
    07:00 +27°C° 0 mm 4 mps 696 mmHg 51%
    08:00 +29°C° 0 mm 3 mps 697 mmHg 46%
    09:00 +30°C° 0 mm 3 mps 697 mmHg 42%
    10:00 +31°C° 0 mm 3 mps 698 mmHg 39%
    11:00 +34°C° 0 mm 3 mps 698 mmHg 36%
    12:00 +35°C° 0 mm 3 mps 697 mmHg 34%
    13:00 +35°C° 0 mm 2 mps 697 mmHg 32%
    14:00 +36°C° 0 mm 2 mps 697 mmHg 30%
    15:00 +35°C° 0 mm 1 mps 696 mmHg 29%
    16:00 +36°C° 0 mm 1 mps 696 mmHg 27%
    17:00 +36°C° 0 mm 1 mps 695 mmHg 25%
    18:00 +34°C° 0 mm 1 mps 695 mmHg 29%
    19:00 +32°C° 0 mm 1 mps 695 mmHg 32%
    20:00 +30°C° 0 mm 2 mps 695 mmHg 36%
    21:00 +30°C° 0 mm 3 mps 695 mmHg 39%
    22:00 +29°C° 0 mm 4 mps 696 mmHg 41%
    23:00 +29°C° 0 mm 5 mps 696 mmHg 44%
    Show more